星链-32292 (STARLINK-32292)

导读 | 星芒AI

STARLINK-32292 是 SpaceX Starlink 卫星互联网项目中的一颗低轨卫星,属于星链计划的第三批部署任务。该卫星由猎鹰9号火箭发射入轨,运行在约 550 公里的近地轨道,旨在为全球用户提供高速互联网服务。作为星链星座的一部分,STARLINK-32292 采用先进通信技术,支持宽带接入,提升偏远地区网络覆盖。其运行有助于增强星链系统的冗余性和服务能力。

基本信息
目录编号:
61889
目录名称:
STARLINK-32292
国际标识:
2024-204R
轨道中心:
EARTH
卫星名称:
星链-32292
卫星全名:
星链-32292 (STARLINK-32292)
卫星状态:
在轨 (已飞行406 天)
发射日期:
2024-11-09 UTC
国别 :
美国 (US)
星等 :
--
轨道信息
数据来源 国际轨道数据 AOE轨道数据
星历时间 2025-12-19T19:05:35+0800
21小时前
查看轨道信息
2025-12-17T14:00:00+0800
3天前
查看轨道信息
半长轴 6853.398km 6853.338km
偏心率 0.0001138 0.0001323
轨道倾角 53.161° 53.160°
近地点辐角 89.320° 88.124°
升交点赤经 139.780° 150.055°
平近点角 270.794° 318.829°
近地点 474.481km 474.296km
远地点 476.041km 476.11km
周期 94.106分钟 94.105分钟
每日圈数 15.301849 15.30205
详细信息
固有亮度:
5
最大亮度:
2.5
卫星平台:
Starlink V1.0
覆盖范围:
全球
运营商:
太空探索技术公司
运营商所在国:
美国
制造商(研发单位):
太空探索技术公司
制造商所在国:
美国
使用方式:
暂无
卫星简介
Starlink 计划是 SpaceX 推出的全球卫星互联网项目,通过发射低轨道卫星,为全球尤其是偏远地区提供高速、低延迟的互联网服务。自 2019 年起,Starlink 已部署数千颗卫星,旨在缩小全球数字鸿沟,推动互联网普及。该项目还为军事、航空等行业提供通信支持,带来广泛经济效益。
2D轨道图
3D轨道图
轨道高度分析图
轨道倾角分析图
轨道综合分析图
查看轨道综合分析图